N4BBA Weather Reports


time (UTC)temp
C
wind
direction
speed
KPH
gust
KPH
rain 1hr
cm
rain 24hr
cm
rain mn
cm
humidity
%
barometer
mb
20260510211035 28 234 3.2 6.4 0.00 0.00 0.00 42 1013.1
20260510210531 28 267 6.4 9.7 0.00 0.00 0.00 43 1013.0
20260510210026 27 131 1.6 1.6 0.00 0.00 0.00 45 1013.2
20260510205526 28 107 0.0 4.8 0.00 0.00 0.00 41 1013.1
20260510205022 29 132 3.2 3.2 0.00 0.00 0.00 41 1012.9
20260510204518 29 195 3.2 6.4 0.00 0.00 0.00 41 1013.0
20260510204015 29 276 4.8 9.7 0.00 0.00 0.00 42 1013.0
20260510203512 28 264 4.8 4.8 0.00 0.00 0.00 42 1013.1
20260510203008 29 244 6.4 16.1 0.00 0.00 0.00 41 1013.1
20260510202502 30 214 1.6 3.2 0.00 0.00 0.00 41 1013.2
20260510201959 29 219 4.8 6.4 0.00 0.00 0.00 42 1013.1
20260510201457 28 118 1.6 3.2 0.00 0.00 0.00 42 1013.1
20260510200953 28 156 3.2 11.3 0.00 0.00 0.00 42 1013.1
20260510200448 28 177 1.6 9.7 0.00 0.00 0.00 42 1013.1
20260510195946 28 249 6.4 11.3 0.00 0.00 0.00 42 1013.3
20260510195444 28 220 6.4 11.3 0.00 0.00 0.00 43 1013.2
20260510194945 28 201 6.4 6.4 0.00 0.00 0.00 43 1013.1
20260510194441 28 273 6.4 6.4 0.00 0.00 0.00 42 1013.2
20260510193936 28 72 3.2 4.8 0.00 0.00 0.00 44 1013.2
20260510193432 28 240 3.2 11.3 0.00 0.00 0.00 43 1013.4
20260510192928 28 258 6.4 9.7 0.00 0.00 0.00 44 1013.2
20260510192423 29 221 6.4 6.4 0.00 0.00 0.00 45 1013.3
20260510191919 28 177 4.8 6.4 0.00 0.00 0.00 44 1013.4
20260510191415 29 226 3.2 4.8 0.00 0.00 0.00 46 1013.6
20260510190913 28 164 1.6 4.8 0.00 0.00 0.00 47 1013.8
20260510190410 26 89 1.6 1.6 0.00 0.00 0.00 52 1013.8
20260510185906 27 293 3.2 4.8 0.00 0.00 0.00 51 1013.8
20260510185404 27 139 1.6 1.6 0.00 0.00 0.00 53 1013.9
20260510184901 27 156 1.6 3.2 0.00 0.00 0.00 55 1014.1
20260510184358 26 125 1.6 3.2 0.00 0.00 0.00 54 1013.9
20260510183857 26 97 0.0 1.6 0.00 0.00 0.00 53 1013.9
20260510183354 26 104 1.6 1.6 0.00 0.00 0.00 55 1013.9
20260510182849 27 340 3.2 4.8 0.00 0.00 0.00 50 1013.9
20260510182346 27 29 3.2 4.8 0.00 0.00 0.00 51 1014.0
20260510181842 27 242 3.2 4.8 0.00 0.00 0.00 52 1014.0
20260510181340 28 226 8.0 11.3 0.00 0.00 0.00 51 1014.1
20260510180835 27 222 6.4 6.4 0.00 0.00 0.00 52 1014.0
20260510180333 27 155 3.2 4.8 0.00 0.00 0.00 54 1014.1
20260510175830 26 122 0.0 1.6 0.00 0.00 0.00 56 1014.0
20260510175325 27 297 3.2 4.8 0.00 0.00 0.00 54 1014.1
20260510174822 27 163 1.6 6.4 0.00 0.00 0.00 52 1014.2
20260510174320 27 122 6.4 6.4 0.00 0.00 0.00 53 1014.1
20260510173816 27 231 3.2 9.7 0.00 0.00 0.00 53 1014.1
20260510173311 27 27 3.2 4.8 0.00 0.00 0.00 55 1014.2
20260510172808 27 297 3.2 3.2 0.00 0.00 0.00 55 1014.2
20260510172306 27 67 3.2 6.4 0.00 0.00 0.00 55 1014.2
20260510171801 27 70 1.6 6.4 0.00 0.00 0.00 56 1014.3
20260510171258 28 127 3.2 6.4 0.00 0.00 0.00 55 1014.4
20260510170755 27 185 1.6 9.7 0.00 0.00 0.00 55 1014.5
20260510170251 28 259 6.4 9.7 0.00 0.00 0.00 54 1014.3
20260510165746 27 146 1.6 4.8 0.00 0.00 0.00 54 1014.4
20260510165242 27 8 4.8 9.7 0.00 0.00 0.00 54 1014.3
20260510164740 26 107 3.2 4.8 0.00 0.00 0.00 54 1014.4
20260510164238 26 223 0.0 3.2 0.00 0.00 0.00 53 1014.6
20260510163738 26 130 3.2 4.8 0.00 0.00 0.00 56 1014.4
20260510163234 27 147 6.4 9.7 0.00 0.00 0.00 54 1014.4
20260510162733 27 160 1.6 9.7 0.00 0.00 0.00 53 1014.3
20260510162231 27 331 6.4 6.4 0.00 0.00 0.00 52 1014.5
20260510161727 26 124 0.0 3.2 0.00 0.00 0.00 52 1014.6
20260510161223 26 93 6.4 11.3 0.00 0.00 0.00 55 1014.6
20260510160720 26 184 3.2 6.4 0.00 0.00 0.00 55 1014.6
20260510160215 26 140 4.8 9.7 0.00 0.00 0.00 54 1014.6
20260510155711 27 46 1.6 6.4 0.00 0.00 0.00 57 1014.7
20260510155207 27 57 1.6 3.2 0.00 0.00 0.00 62 1014.8
20260510154703 26 119 0.0 3.2 0.00 0.00 0.00 60 1014.7
20260510154159 26 110 0.0 3.2 0.00 0.00 0.00 60 1014.8
20260510153654 26 10 3.2 3.2 0.00 0.00 0.00 62 1015.0
20260510153151 25 179 1.6 3.2 0.00 0.00 0.00 63 1014.7
20260510152648 25 304 4.8 6.4 0.00 0.00 0.00 63 1014.8
20260510152144 25 123 1.6 6.4 0.00 0.00 0.00 64 1014.5
20260510151640 26 37 4.8 6.4 0.00 0.00 0.00 65 1014.7
20260510151139 25 209 1.6 3.2 0.00 0.00 0.00 65 1014.8
20260510150634 25 106 0.0 3.2 0.00 0.00 0.00 67 1014.7
20260510150130 25 187 1.6 6.4 0.00 0.00 0.00 68 1014.8
20260510145626 25 311 1.6 4.8 0.00 0.00 0.00 71 1014.9
20260510145123 25 154 4.8 4.8 0.00 0.00 0.00 71 1014.7
20260510144619 25 161 3.2 3.2 0.00 0.00 0.00 72 1014.6
20260510144115 24 137 3.2 3.2 0.00 0.00 0.00 73 1014.5
20260510143611 24 202 3.2 4.8 0.00 0.00 0.00 73 1014.5
20260510143107 24 131 1.6 6.4 0.00 0.00 0.00 75 1014.6
20260510142604 23 96 1.6 4.8 0.00 0.00 0.00 75 1014.8
20260510142101 24 55 1.6 4.8 0.00 0.00 0.00 77 1014.7
20260510141557 24 214 1.6 3.2 0.00 0.00 0.00 78 1014.6
20260510141056 23 65 0.0 1.6 0.00 0.00 0.00 79 1014.6
20260510140551 23 91 1.6 4.8 0.00 0.00 0.00 80 1014.7
20260510140051 23 80 1.6 6.4 0.00 0.00 0.00 81 1014.7
20260510135547 22 79 1.6 4.8 0.00 0.00 0.00 82 1014.8
20260510135043 22 39 4.8 4.8 0.00 0.00 0.00 84 1014.8
20260510134540 22 88 1.6 4.8 0.00 0.00 0.00 85 1014.6
20260510134037 22 249 4.8 4.8 0.00 0.00 0.00 86 1014.6
20260510133533 22 209 3.2 6.4 0.00 0.00 0.00 87 1014.6
20260510133029 22 57 1.6 4.8 0.00 0.00 0.00 89 1014.4
20260510132526 22 153 3.2 3.2 0.00 0.00 0.00 90 1014.3
20260510132023 21 200 3.2 4.8 0.00 0.00 0.00 92 1014.5
20260510131521 21 211 4.8 6.4 0.00 0.00 0.00 93 1014.5
20260510131018 21 297 3.2 6.4 0.00 0.00 0.00 94 1014.6
20260510130514 21 259 3.2 6.4 0.00 0.00 0.00 95 1014.4
20260510130012 20 203 3.2 4.8 0.00 0.00 0.00 96 1014.5
20260510125508 20 157 3.2 4.8 0.00 0.00 0.00 97 1014.3
20260510125004 20 219 6.4 6.4 0.00 0.00 0.00 97 1014.4
20260510124500 20 301 3.2 6.4 0.00 0.00 0.00 98 1014.3
20260510123957 19 313 3.2 6.4 0.00 0.00 0.00 98 1014.3
20260510123453 18 242 1.6 3.2 0.00 0.00 0.00 98 1014.1
20260510122949 18 220 4.8 4.8 0.00 0.00 0.00 99 1014.2
20260510122445 17 155 1.6 3.2 0.00 0.00 0.00 99 1014.1
20260510121941 17 201 4.8 4.8 0.00 0.00 0.00 99 1014.2
20260510121438 17 174 1.6 3.2 0.00 0.00 0.00 99 1014.0
20260510120936 17 176 1.6 1.6 0.00 0.00 0.00 99 1014.0
20260510120433 17 180 0.0 0.0 0.00 0.00 0.00 99 1014.0
20260510115928 16 131 0.0 0.0 0.00 0.00 0.00 99 1014.0
20260510115426 16 115 0.0 0.0 0.00 0.00 0.00 99 1013.9
20260510114921 16 115 0.0 0.0 0.00 0.00 0.00 99 1013.8
20260510114419 16 115 0.0 0.0 0.00 0.00 0.00 99 1013.7
20260510113914 16 112 0.0 0.0 0.00 0.00 0.00 99 1013.8
20260510113410 16 118 0.0 0.0 0.00 0.00 0.00 99 1013.9
20260510112907 15 118 0.0 0.0 0.00 0.00 0.00 99 1013.6
20260510112405 15 111 0.0 0.0 0.00 0.00 0.00 99 1013.7
20260510111901 15 107 0.0 0.0 0.00 0.00 0.00 99 1013.3
20260510111357 15 107 0.0 0.0 0.00 0.00 0.00 99 1013.4
20260510110852 15 112 0.0 0.0 0.00 0.00 0.00 99 1013.5
20260510110349 15 116 0.0 0.0 0.00 0.00 0.00 99 1013.3
20260510105845 15 113 0.0 0.0 0.00 0.00 0.00 99 1013.3
20260510105345 15 113 0.0 0.0 0.00 0.00 0.00 99 1013.4
20260510104841 15 112 0.0 0.0 0.00 0.00 0.00 99 1013.2
20260510104338 15 114 0.0 0.0 0.00 0.00 0.00 99 1013.1
20260510103834 15 114 0.0 0.0 0.00 0.00 0.00 99 1013.1
20260510103332 15 109 0.0 0.0 0.00 0.00 0.00 99 1013.0
20260510102827 15 109 0.0 0.0 0.00 0.00 0.00 99 1012.7
20260510102323 15 116 0.0 0.0 0.00 0.00 0.00 99 1012.8
20260510101820 15 115 0.0 0.0 0.00 0.00 0.00 99 1012.6
20260510101318 15 119 0.0 0.0 0.00 0.00 0.00 99 1012.7
20260510100814 15 116 0.0 0.0 0.00 0.00 0.00 99 1012.6
20260510100312 15 115 0.0 0.0 0.00 0.00 0.00 99 1012.3
20260510095808 15 118 0.0 0.0 0.00 0.00 0.00 99 1012.3
20260510095305 14 111 0.0 0.0 0.00 0.00 0.00 99 1012.4
20260510094803 15 106 0.0 0.0 0.00 0.00 0.00 99 1012.2
20260510094258 15 103 0.0 0.0 0.00 0.00 0.00 99 1012.2
20260510093754 15 123 0.0 0.0 0.00 0.00 0.00 99 1012.2
20260510093251 15 123 0.0 0.0 0.00 0.00 0.00 99 1012.1
20260510092747 14 123 0.0 0.0 0.00 0.00 0.00 99 1012.2
20260510092243 14 123 0.0 0.0 0.00 0.00 0.00 98 1012.2
20260510091739 14 118 0.0 0.0 0.00 0.00 0.00 98 1011.9
20260510091236 14 118 0.0 0.0 0.00 0.00 0.00 98 1011.9
20260510090732 14 118 0.0 0.0 0.00 0.00 0.00 98 1012.0
20260510090230 14 122 0.0 0.0 0.00 0.00 0.00 98 1012.0
20260510085725 14 122 0.0 0.0 0.00 0.00 0.00 98 1011.9
20260510085220 14 116 0.0 0.0 0.00 0.00 0.00 98 1011.8
20260510084716 14 115 0.0 0.0 0.00 0.00 0.00 98 1011.6
20260510084213 14 116 0.0 0.0 0.00 0.00 0.00 98 1011.8
20260510083709 14 124 0.0 0.0 0.00 0.00 0.00 98 1011.6
20260510083207 14 121 0.0 0.0 0.00 0.00 0.00 98 1011.6
20260510082702 14 121 0.0 0.0 0.00 0.00 0.00 98 1011.6
20260510082159 14 105 0.0 0.0 0.00 0.00 0.00 98 1011.6
20260510081659 14 101 0.0 0.0 0.00 0.00 0.00 98 1011.6
20260510081155 14 124 0.0 0.0 0.00 0.00 0.00 98 1011.6
20260510080654 14 132 0.0 0.0 0.00 0.00 0.00 98 1011.7
20260510080152 15 118 0.0 0.0 0.00 0.00 0.00 98 1011.4
20260510075648 14 117 0.0 0.0 0.00 0.00 0.00 98 1011.3
20260510075146 14 117 0.0 0.0 0.00 0.00 0.00 98 1011.4
20260510074643 14 113 0.0 0.0 0.00 0.00 0.00 98 1011.3
20260510074138 14 111 0.0 0.0 0.00 0.00 0.00 98 1011.2
20260510073635 14 110 0.0 0.0 0.00 0.00 0.00 98 1011.4
20260510073132 14 113 0.0 0.0 0.00 0.00 0.00 98 1011.4
20260510072628 14 114 0.0 0.0 0.00 0.00 0.00 98 1011.3
20260510072124 14 115 0.0 0.0 0.00 0.00 0.00 98 1011.4
20260510071620 14 115 0.0 0.0 0.00 0.00 0.00 98 1011.4
20260510071118 15 110 0.0 0.0 0.00 0.00 0.00 98 1011.4
20260510070615 15 102 0.0 0.0 0.00 0.00 0.00 98 1011.3
20260510070112 15 115 0.0 0.0 0.00 0.00 0.00 98 1011.4
20260510065608 15 121 0.0 0.0 0.00 0.00 0.00 98 1011.6
20260510065104 15 121 0.0 0.0 0.00 0.00 0.00 98 1011.6
20260510064601 15 116 0.0 0.0 0.00 0.00 0.00 98 1011.4
20260510064058 15 116 0.0 0.0 0.00 0.00 0.00 98 1011.5
20260510063555 15 121 0.0 0.0 0.00 0.00 0.00 98 1011.5
20260510063052 15 125 0.0 0.0 0.00 0.00 0.00 98 1011.4
20260510062548 15 123 0.0 0.0 0.00 0.00 0.00 98 1011.4
20260510062043 15 112 0.0 0.0 0.00 0.00 0.00 98 1011.4
20260510061540 15 112 0.0 0.0 0.00 0.00 0.00 98 1011.3
20260510061036 15 112 0.0 0.0 0.00 0.00 0.00 98 1011.3
20260510060533 15 109 0.0 0.0 0.00 0.00 0.00 97 1011.3
20260510060029 15 109 0.0 0.0 0.00 0.00 0.00 97 1011.5
20260510055525 15 105 0.0 0.0 0.00 0.00 0.00 97 1011.4
20260510055024 15 124 0.0 0.0 0.00 0.00 0.00 97 1011.7
20260510054519 15 130 0.0 0.0 0.00 0.00 0.00 97 1011.7
20260510054014 15 123 0.0 0.0 0.00 0.00 0.00 97 1011.8
20260510053509 15 118 0.0 0.0 0.00 0.00 0.00 97 1011.8
20260510053006 15 118 0.0 0.0 0.00 0.00 0.00 97 1011.7
20260510052502 15 119 0.0 0.0 0.00 0.00 0.00 97 1011.8
20260510051958 15 122 0.0 0.0 0.00 0.00 0.00 97 1011.9
20260510051454 15 114 0.0 0.0 0.00 0.00 0.00 97 1011.8
20260510050950 15 112 0.0 0.0 0.00 0.00 0.00 97 1011.8
20260510050448 15 111 0.0 0.0 0.00 0.00 0.00 97 1011.7
20260510045945 15 119 0.0 0.0 0.00 0.00 0.00 97 1012.0
20260510045442 16 120 0.0 0.0 0.00 0.00 0.00 97 1012.0
20260510044939 16 127 0.0 0.0 0.00 0.00 0.00 97 1012.0
20260510044436 16 126 0.0 0.0 0.00 0.00 0.00 97 1012.1
20260510043932 16 126 0.0 0.0 0.00 0.00 0.00 97 1011.9
20260510043428 16 126 0.0 0.0 0.00 0.00 0.00 97 1012.1
20260510042926 16 126 0.0 0.0 0.00 0.00 0.00 97 1012.1
20260510042422 16 123 0.0 0.0 0.00 0.00 0.00 97 1012.0
20260510041918 15 123 0.0 0.0 0.00 0.00 0.00 97 1011.9
20260510041415 15 123 0.0 0.0 0.00 0.00 0.00 97 1011.8
20260510040913 16 123 0.0 0.0 0.00 0.00 0.00 96 1011.7
20260510040410 16 123 0.0 0.0 0.00 0.00 0.00 96 1011.8
20260510035905 16 122 0.0 0.0 0.00 0.00 0.00 96 1011.7
20260510035402 16 120 0.0 0.0 0.00 0.00 0.00 96 1011.9
20260510034856 16 123 0.0 0.0 0.00 0.00 0.00 96 1011.7
20260510034355 16 123 0.0 0.0 0.00 0.00 0.00 96 1011.8
20260510033851 16 123 0.0 0.0 0.00 0.00 0.00 96 1011.8
20260510033348 16 122 0.0 0.0 0.00 0.00 0.00 96 1011.7
20260510032844 16 122 0.0 0.0 0.00 0.00 0.00 96 1011.6
20260510032341 16 125 0.0 0.0 0.00 0.00 0.00 96 1011.6
20260510031837 16 122 0.0 0.0 0.00 0.00 0.00 96 1011.4
20260510031332 16 119 0.0 0.0 0.00 0.00 0.00 96 1011.3
20260510030832 16 119 0.0 0.0 0.00 0.00 0.00 96 1011.4
20260510030329 16 124 0.0 0.0 0.00 0.00 0.00 96 1011.4
20260510025826 16 129 0.0 0.0 0.00 0.00 0.00 96 1011.5
20260510025324 16 139 0.0 0.0 0.00 0.00 0.00 95 1011.5
20260510024820 16 117 0.0 0.0 0.00 0.00 0.00 95 1011.3
20260510024317 16 115 0.0 0.0 0.00 0.00 0.00 95 1011.3
20260510023813 16 112 0.0 0.0 0.00 0.00 0.00 95 1011.3
20260510023310 16 117 0.0 0.0 0.00 0.00 0.00 95 1011.3
20260510022807 17 126 0.0 0.0 0.00 0.00 0.00 95 1011.3
20260510022307 17 127 0.0 0.0 0.00 0.00 0.00 95 1011.5
20260510021806 16 121 0.0 0.0 0.00 0.00 0.00 95 1011.2
20260510021304 17 121 0.0 0.0 0.00 0.00 0.00 94 1011.2
20260510020759 17 121 0.0 0.0 0.00 0.00 0.00 94 1011.1
20260510020300 17 116 0.0 0.0 0.00 0.00 0.00 94 1011.0
20260510015756 17 109 0.0 0.0 0.00 0.00 0.00 94 1011.1
20260510015252 17 109 0.0 0.0 0.00 0.00 0.00 94 1011.2
20260510014747 17 125 0.0 0.0 0.00 0.00 0.00 94 1011.0
20260510014245 17 125 0.0 0.0 0.00 0.00 0.00 93 1010.9
20260510013740 17 131 0.0 0.0 0.00 0.00 0.00 93 1010.9
20260510013236 17 127 0.0 0.0 0.00 0.00 0.00 93 1010.6
20260510012731 17 124 0.0 0.0 0.00 0.00 0.00 93 1010.6
20260510012227 17 127 0.0 0.0 0.00 0.00 0.00 93 1010.7
20260510011727 17 136 0.0 0.0 0.00 0.00 0.00 92 1010.7
20260510011222 17 120 0.0 0.0 0.00 0.00 0.00 92 1010.6
20260510010719 18 115 0.0 0.0 0.00 0.00 0.00 92 1010.7
20260510010215 18 120 0.0 0.0 0.00 0.00 0.00 92 1010.6
20260510005712 18 115 0.0 0.0 0.00 0.00 0.00 91 1010.8
20260510005208 18 115 0.0 0.0 0.00 0.00 0.00 91 1010.6
20260510004707 18 110 0.0 0.0 0.00 0.00 0.00 91 1010.5
20260510004205 18 119 0.0 0.0 0.00 0.00 0.00 90 1010.3
20260510003702 18 115 0.0 0.0 0.00 0.00 0.00 90 1010.3
20260510003158 18 116 0.0 0.0 0.00 0.00 0.00 89 1010.2
20260510002657 18 116 0.0 0.0 0.00 0.00 0.00 89 1010.2
20260510002154 19 117 0.0 0.0 0.00 0.00 0.00 89 1010.3
20260510001651 19 113 0.0 0.0 0.00 0.00 0.00 88 1010.6
20260510001150 20 113 0.0 0.0 0.00 0.00 0.00 88 1010.2
20260510000650 20 121 0.0 0.0 0.00 0.00 0.00 87 1010.4
20260510000148 20 108 0.0 0.0 0.00 0.00 0.00 87 1010.2
20260509235644 20 96 0.0 0.0 0.00 0.00 0.00 86 1010.1
20260509235141 20 107 0.0 0.0 0.00 0.00 0.00 85 1010.0
20260509234637 21 110 0.0 0.0 0.00 0.00 0.00 85 1010.1
20260509234135 21 117 0.0 0.0 0.00 0.00 0.00 84 1010.1
20260509233633 21 115 0.0 0.0 0.00 0.00 0.00 83 1009.8
20260509233130 21 116 0.0 0.0 0.00 0.00 0.00 82 1009.8
20260509232625 21 326 0.0 0.0 0.00 0.00 0.00 82 1009.7
20260509232123 22 103 0.0 0.0 0.00 0.00 0.00 81 1009.5
20260509231619 22 103 0.0 0.0 0.00 0.00 0.00 80 1009.7
20260509231117 22 103 0.0 0.0 0.00 0.00 0.00 79 1009.6
20260509230614 22 107 0.0 0.0 0.00 0.00 0.00 78 1009.6
20260509230111 22 134 0.0 0.0 0.00 0.00 0.00 77 1009.4
20260509225606 22 155 1.6 4.8 0.00 0.00 0.00 76 1009.5
20260509225102 23 195 3.2 4.8 0.00 0.00 0.00 75 1009.6
20260509224557 23 138 3.2 3.2 0.00 0.00 0.00 75 1009.5
20260509224055 22 138 0.0 3.2 0.00 0.00 0.00 76 1009.4
20260509223552 22 152 3.2 4.8 0.00 0.00 0.00 76 1009.5
20260509223049 23 160 1.6 4.8 0.00 0.00 0.00 75 1009.5
20260509222545 23 150 1.6 3.2 0.00 0.00 0.00 75 1009.4
20260509222041 23 144 3.2 6.4 0.00 0.00 0.00 75 1009.4
20260509221537 23 207 4.8 4.8 0.00 0.00 0.00 75 1009.3
20260509221033 23 170 3.2 6.4 0.00 0.00 0.00 75 1009.4
20260509220529 23 167 3.2 3.2 0.00 0.00 0.00 74 1009.7
20260509220026 23 181 4.8 6.4 0.00 0.00 0.00 74 1009.5
20260509215521 23 202 3.2 6.4 0.00 0.00 0.00 75 1009.7
20260509215019 23 173 3.2 6.4 0.00 0.00 0.00 75 1009.6
20260509214516 23 201 4.8 6.4 0.00 0.00 0.00 74 1009.7
20260509214013 22 137 1.6 4.8 0.00 0.00 0.00 75 1009.4
20260509213508 22 163 4.8 12.9 0.00 0.00 0.00 74 1009.4
20260509213006 23 265 6.4 9.7 0.00 0.00 0.00 74 1009.7
20260509212503 23 281 3.2 4.8 0.00 0.00 0.00 74 1009.4
20260509211959 23 203 4.8 6.4 0.00 0.00 0.00 74 1009.6